Tracking 29892 objects as of 21-Nov-2024
HD Live streaming from Space Station
objects crossing your sky now

STARLINK-32121

Track STARLINK-32121 now!
10-day predictions
STARLINK-32121 is classified as:


NORAD ID: 60264
Int'l Code: 2024-131K
Perigee: 481.6 km
Apogee: 483.1 km
Inclination: 53.2 °
Period: 94.1 minutes
Semi major axis: 6853 km
RCS: Unknown
Launch date: July 27, 2024
Source: United States (US)
Launch site: AIR FORCE EASTERN TEST RANGE (AFETR)
Your satellite tracking list
Your tracking list is empty




NASA's NSSDC Master Catalog

Two Line Element Set (TLE):
1 60264U 24131K   24325.80409939 -.00000623  00000-0 -89054-5 0  9991
2 60264  53.1608  93.6539 0001087  90.2244 269.8881 15.30190680 19202
Source of the keplerian elements: AFSPC